| time (UTC) | temp F | wind direction | speed MPH | gust MPH | rain 1hr in | rain 24hr in | rain mn in | humidity % | barometer mb |
| 20260505021615 | 68 | 155 | 1.0 | 3.0 | 0.00 | 0.00 | 0.00 | 34 | 1003.6 |
| 20260505020627 | 69 | 155 | 2.0 | 3.0 | 0.00 | 0.00 | 0.00 | 33 | 1003.5 |
| 20260505015622 | 69 | 155 | 2.0 | 5.0 | 0.00 | 0.00 | 0.00 | 32 | 1003.5 |
| 20260505014650 | 69 | 136 | 2.0 | 4.0 | 0.00 | 0.00 | 0.00 | 30 | 1003.5 |
| 20260505013619 | 69 | 132 | 3.0 | 4.0 | 0.00 | 0.00 | 0.00 | 30 | 1003.5 |
| 20260505012613 | 69 | 156 | 2.0 | 3.0 | 0.00 | 0.00 | 0.00 | 30 | 1003.6 |
| 20260505011621 | 69 | 153 | 1.0 | 5.0 | 0.00 | 0.00 | 0.00 | 30 | 1003.5 |
| 20260505010628 | 68 | 180 | 2.0 | 4.0 | 0.00 | 0.00 | 0.00 | 34 | 1003.7 |
| 20260505005620 | 68 | 237 | 0.0 | 1.0 | 0.00 | 0.00 | 0.00 | 32 | 1003.8 |
| 20260505004613 | 69 | 237 | 2.0 | 7.0 | 0.00 | 0.00 | 0.00 | 36 | 1004.1 |
| 20260505003640 | 70 | 327 | 3.0 | 8.0 | 0.00 | 0.00 | 0.00 | 28 | 1004.1 |
| 20260505002648 | 71 | 284 | 2.0 | 10.0 | 0.00 | 0.00 | 0.00 | 29 | 1004.3 |
| 20260505001616 | 72 | 338 | 4.0 | 10.0 | 0.00 | 0.00 | 0.00 | 27 | 1004.3 |
| 20260505000625 | 72 | 349 | 5.0 | 9.0 | 0.00 | 0.00 | 0.00 | 29 | 1004.3 |
| 20260504235619 | 73 | 46 | 6.0 | 12.0 | 0.00 | 0.00 | 0.00 | 27 | 1004.3 |
| 20260504234630 | 73 | 26 | 6.0 | 13.0 | 0.00 | 0.00 | 0.00 | 27 | 1004.3 |
| 20260504233620 | 73 | 326 | 8.0 | 14.0 | 0.00 | 0.00 | 0.00 | 28 | 1004.2 |
| 20260504232647 | 73 | 348 | 6.0 | 14.0 | 0.00 | 0.00 | 0.00 | 31 | 1004.2 |
| 20260504231617 | 72 | 314 | 6.0 | 15.0 | 0.00 | 0.00 | 0.00 | 32 | 1004.1 |
| 20260504230631 | 76 | 38 | 6.0 | 16.0 | 0.00 | 0.00 | 0.00 | 27 | 1004.2 |
| 20260504225629 | 76 | 190 | 3.0 | 9.0 | 0.00 | 0.00 | 0.00 | 26 | 1003.9 |
| 20260504224617 | 76 | 288 | 4.0 | 8.0 | 0.00 | 0.00 | 0.00 | 27 | 1004.0 |
| 20260504223623 | 76 | 237 | 5.0 | 11.0 | 0.00 | 0.00 | 0.00 | 26 | 1003.9 |
| 20260504222613 | 76 | 250 | 3.0 | 8.0 | 0.00 | 0.00 | 0.00 | 25 | 1003.8 |
| 20260504221641 | 76 | 262 | 4.0 | 7.0 | 0.00 | 0.00 | 0.00 | 25 | 1003.9 |
| 20260504220629 | 76 | 259 | 3.0 | 6.0 | 0.00 | 0.00 | 0.00 | 25 | 1004.0 |
| 20260504215629 | 77 | 337 | 4.0 | 8.0 | 0.00 | 0.00 | 0.00 | 23 | 1004.1 |
| 20260504214622 | 76 | 333 | 1.0 | 3.0 | 0.00 | 0.00 | 0.00 | 25 | 1004.4 |
| 20260504213649 | 76 | 85 | 2.0 | 7.0 | 0.00 | 0.00 | 0.00 | 24 | 1004.4 |
| 20260504212618 | 76 | 329 | 1.0 | 6.0 | 0.00 | 0.00 | 0.00 | 24 | 1004.7 |
| 20260504211648 | 76 | 355 | 4.0 | 9.0 | 0.00 | 0.00 | 0.00 | 26 | 1004.9 |
| 20260504210622 | 75 | 36 | 4.0 | 8.0 | 0.00 | 0.00 | 0.00 | 24 | 1004.9 |
| 20260504205622 | 76 | 57 | 4.0 | 8.0 | 0.00 | 0.00 | 0.00 | 26 | 1005.1 |
| 20260504204652 | 75 | 44 | 3.0 | 9.0 | 0.00 | 0.00 | 0.00 | 27 | 1005.2 |
| 20260504203621 | 76 | 319 | 3.0 | 8.0 | 0.00 | 0.00 | 0.00 | 28 | 1005.4 |
| 20260504202615 | 76 | 38 | 3.0 | 5.0 | 0.00 | 0.00 | 0.00 | 28 | 1005.4 |
| 20260504201622 | 75 | 79 | 3.0 | 8.0 | 0.00 | 0.00 | 0.00 | 26 | 1005.6 |
| 20260504200630 | 74 | 334 | 2.0 | 5.0 | 0.00 | 0.00 | 0.00 | 29 | 1005.7 |
| 20260504195632 | 74 | 285 | 3.0 | 5.0 | 0.00 | 0.00 | 0.00 | 31 | 1005.8 |
| 20260504194624 | 74 | 45 | 4.0 | 8.0 | 0.00 | 0.00 | 0.00 | 29 | 1005.9 |
| 20260504193613 | 74 | 296 | 3.0 | 10.0 | 0.00 | 0.00 | 0.00 | 31 | 1006.1 |
| 20260504192622 | 73 | 279 | 1.0 | 4.0 | 0.00 | 0.00 | 0.00 | 30 | 1006.2 |
| 20260504191630 | 73 | 346 | 3.0 | 8.0 | 0.00 | 0.00 | 0.00 | 31 | 1006.3 |
| 20260504190622 | 73 | 259 | 3.0 | 6.0 | 0.00 | 0.00 | 0.00 | 30 | 1006.5 |
| 20260504185621 | 72 | 327 | 2.0 | 6.0 | 0.00 | 0.00 | 0.00 | 32 | 1006.7 |
| 20260504184629 | 72 | 49 | 3.0 | 4.0 | 0.00 | 0.00 | 0.00 | 29 | 1006.8 |
| 20260504183636 | 72 | 38 | 3.0 | 6.0 | 0.00 | 0.00 | 0.00 | 30 | 1007.0 |
| 20260504182626 | 71 | 209 | 1.0 | 4.0 | 0.00 | 0.00 | 0.00 | 31 | 1007.1 |
| 20260504181613 | 71 | 350 | 2.0 | 4.0 | 0.00 | 0.00 | 0.00 | 32 | 1007.3 |
| 20260504180612 | 69 | 136 | 1.0 | 5.0 | 0.00 | 0.00 | 0.00 | 34 | 1007.5 |
| 20260504175651 | 68 | 57 | 1.0 | 4.0 | 0.00 | 0.00 | 0.00 | 34 | 1007.6 |
| 20260504174620 | 67 | 42 | 1.0 | 5.0 | 0.00 | 0.00 | 0.00 | 36 | 1007.8 |
| 20260504173614 | 66 | 51 | 3.0 | 6.0 | 0.00 | 0.00 | 0.00 | 37 | 1007.9 |
| 20260504172625 | 65 | 32 | 1.0 | 5.0 | 0.00 | 0.00 | 0.00 | 40 | 1007.9 |
| 20260504171636 | 65 | 17 | 2.0 | 6.0 | 0.00 | 0.00 | 0.00 | 41 | 1007.9 |
| 20260504170625 | 64 | 27 | 0.0 | 6.0 | 0.00 | 0.00 | 0.00 | 41 | 1008.0 |